• In Hungary
  • List of Countries
  • For 7 days
  • Water Temperature
  • Satellite Maps
  • Weather Map
  • News
  • Weather Widgets
  • user-avatar
    Login

    Hourly Weather Trzeboszowice

    Today, 19 September, Wednesday

    Time Temperature Precipitation Wind Pressure Humidity
    00:00 +18°C° 0 mm 3 mps 744 mmHg 66%
    01:00 +18°C° 0 mm 3 mps 744 mmHg 65%
    02:00 +17°C° 0 mm 3 mps 744 mmHg 64%
    03:00 +17°C° 0 mm 3 mps 744 mmHg 64%
    04:00 +17°C° 0 mm 3 mps 744 mmHg 63%
    05:00 +17°C° 0 mm 3 mps 744 mmHg 63%
    06:00 +18°C° 0 mm 3 mps 744 mmHg 64%
    07:00 +18°C° 0 mm 3 mps 745 mmHg 62%
    08:00 +20°C° 0 mm 3 mps 745 mmHg 59%
    09:00 +23°C° 0 mm 2 mps 745 mmHg 55%
    10:00 +25°C° 0 mm 2 mps 745 mmHg 51%
    11:00 +26°C° 0 mm 2 mps 745 mmHg 50%
    12:00 +27°C° 0 mm 2 mps 745 mmHg 48%
    13:00 +28°C° 0 mm 2 mps 745 mmHg 45%
    14:00 +28°C° 0 mm 2 mps 745 mmHg 47%
    15:00 +28°C° 0 mm 2 mps 745 mmHg 48%
    16:00 +28°C° 0 mm 2 mps 745 mmHg 50%
    17:00 +26°C° 0 mm 2 mps 745 mmHg 56%
    18:00 +24°C° 0 mm 2 mps 745 mmHg 62%
    19:00 +21°C° 0 mm 2 mps 745 mmHg 69%
    20:00 +20°C° 0 mm 2 mps 745 mmHg 70%
    21:00 +20°C° 0 mm 2 mps 746 mmHg 72%
    22:00 +19°C° 0 mm 2 mps 746 mmHg 73%
    23:00 +19°C° 0 mm 2 mps 746 mmHg 74%

    Tomorrow, 20 September, Thursday

    Time Temperature Precipitation Wind Pressure Humidity
    00:00 +19°C° 0 mm 2 mps 746 mmHg 75%
    01:00 +18°C° 0 mm 2 mps 746 mmHg 76%
    02:00 +18°C° 0 mm 2 mps 746 mmHg 77%
    03:00 +19°C° 0 mm 1 mps 746 mmHg 78%
    04:00 +19°C° 0 mm 1 mps 746 mmHg 79%
    05:00 +19°C° 0 mm 1 mps 746 mmHg 78%
    06:00 +20°C° 0 mm 1 mps 746 mmHg 77%
    07:00 +20°C° 0 mm 1 mps 746 mmHg 76%
    08:00 +22°C° 0 mm 1 mps 746 mmHg 69%
    09:00 +24°C° 0 mm 1 mps 746 mmHg 62%
    10:00 +27°C° 0 mm 1 mps 746 mmHg 55%
    11:00 +27°C° 0 mm 1 mps 746 mmHg 51%
    12:00 +28°C° 0 mm 1 mps 746 mmHg 48%
    13:00 +29°C° 0 mm 1 mps 746 mmHg 45%
    14:00 +29°C° 0 mm 1 mps 745 mmHg 46%
    15:00 +28°C° 0 mm 1 mps 745 mmHg 47%
    16:00 +28°C° 0 mm 1 mps 745 mmHg 47%
    17:00 +26°C° 0 mm 1 mps 745 mmHg 53%
    18:00 +24°C° 0 mm 1 mps 745 mmHg 59%
    19:00 +21°C° 0 mm 2 mps 744 mmHg 65%
    20:00 +21°C° 0 mm 2 mps 744 mmHg 67%
    21:00 +20°C° 0 mm 2 mps 744 mmHg 70%
    22:00 +20°C° 0 mm 2 mps 744 mmHg 72%
    23:00 +19°C° 0 mm 2 mps 744 mmHg 74%

    Day after tomorrow, 21 September, Friday

    Time Temperature Precipitation Wind Pressure Humidity
    00:00 +19°C° 0 mm 2 mps 744 mmHg 75%
    01:00 +18°C° 0 mm 2 mps 744 mmHg 77%
    02:00 +18°C° 0 mm 2 mps 743 mmHg 78%
    03:00 +18°C° 0 mm 2 mps 743 mmHg 78%
    04:00 +18°C° 0 mm 2 mps 743 mmHg 79%
    05:00 +18°C° 0 mm 2 mps 742 mmHg 77%
    06:00 +18°C° 0 mm 3 mps 742 mmHg 76%
    07:00 +19°C° 0 mm 3 mps 742 mmHg 74%
    08:00 +21°C° 0 mm 4 mps 742 mmHg 67%
    09:00 +23°C° 0 mm 4 mps 742 mmHg 59%
    10:00 +26°C° 0 mm 5 mps 741 mmHg 52%
    11:00 +26°C° 0 mm 6 mps 741 mmHg 50%
    12:00 +27°C° 0 mm 6 mps 741 mmHg 48%
    13:00 +28°C° 0 mm 7 mps 740 mmHg 46%
    14:00 +28°C° 0 mm 6 mps 740 mmHg 47%
    15:00 +28°C° 0 mm 6 mps 739 mmHg 49%
    16:00 +28°C° 0 mm 5 mps 739 mmHg 50%
    17:00 +26°C° 0 mm 5 mps 739 mmHg 54%
    18:00 +25°C° 0 mm 4 mps 739 mmHg 57%
    19:00 +22°C° 0 mm 4 mps 739 mmHg 61%
    20:00 +22°C° 0 mm 4 mps 740 mmHg 64%
    21:00 +21°C° 0 mm 4 mps 741 mmHg 66%
    22:00 +20°C° 0 mm 5 mps 742 mmHg 69%
    23:00 +19°C° 0.1 mm 4 mps 742 mmHg 70%

    22 September, Saturday

    Time Temperature Precipitation Wind Pressure Humidity
    00:00 +18°C° 0.1 mm 3 mps 743 mmHg 72%
    01:00 +16°C° 0.1 mm 3 mps 743 mmHg 73%
    02:00 +16°C° 0.2 mm 2 mps 744 mmHg 73%
    03:00 +15°C° 0.2 mm 2 mps 744 mmHg 74%
    04:00 +15°C° 0.2 mm 2 mps 744 mmHg 74%
    05:00 +15°C° 0 mm 2 mps 745 mmHg 74%
    06:00 +15°C° 0 mm 2 mps 745 mmHg 73%
    07:00 +14°C° 0 mm 2 mps 745 mmHg 73%
    08:00 +15°C° 0.2 mm 2 mps 746 mmHg 70%
    09:00 +14°C° 0.2 mm 3 mps 746 mmHg 67%
    10:00 +14°C° 0.2 mm 4 mps 746 mmHg 64%
    11:00 +14°C° 0 mm 4 mps 746 mmHg 60%
    12:00 +15°C° 0 mm 5 mps 746 mmHg 56%
    13:00 +16°C° 0 mm 5 mps 746 mmHg 52%
    14:00 +16°C° 0 mm 5 mps 745 mmHg 51%
    15:00 +16°C° 0 mm 5 mps 745 mmHg 50%
    16:00 +17°C° 0 mm 4 mps 745 mmHg 50%
    17:00 +15°C° 0 mm 4 mps 745 mmHg 55%
    18:00 +13°C° 0 mm 3 mps 745 mmHg 60%
    19:00 +12°C° 0 mm 3 mps 745 mmHg 65%
    20:00 +12°C° 0 mm 3 mps 746 mmHg 66%
    21:00 +11°C° 0 mm 3 mps 746 mmHg 67%
    22:00 +12°C° 0 mm 2 mps 746 mmHg 67%
    23:00 +12°C° 0 mm 2 mps 746 mmHg 69%

    23 September, Sunday

    Time Temperature Precipitation Wind Pressure Humidity
    00:00 +10°C° 0 mm 2 mps 746 mmHg 70%
    01:00 +10°C° 0 mm 2 mps 746 mmHg 71%
    02:00 +9°C° 0 mm 2 mps 746 mmHg 72%
    03:00 +9°C° 0 mm 2 mps 746 mmHg 72%
    04:00 +9°C° 0 mm 2 mps 746 mmHg 72%
    05:00 +10°C° 0 mm 2 mps 746 mmHg 71%
    06:00 +10°C° 0 mm 2 mps 746 mmHg 70%
    07:00 +10°C° 0 mm 2 mps 746 mmHg 69%
    08:00 +12°C° 0 mm 3 mps 746 mmHg 67%
    09:00 +13°C° 0 mm 4 mps 746 mmHg 64%
    10:00 +14°C° 0 mm 4 mps 745 mmHg 62%
    11:00 +15°C° 0 mm 5 mps 745 mmHg 60%
    12:00 +15°C° 0 mm 5 mps 744 mmHg 58%
    13:00 +16°C° 0 mm 5 mps 743 mmHg 57%
    14:00 +16°C° 0.3 mm 5 mps 742 mmHg 63%
    15:00 +15°C° 0.3 mm 5 mps 741 mmHg 69%
    16:00 +15°C° 0.3 mm 5 mps 740 mmHg 75%
    17:00 +15°C° 0.3 mm 6 mps 739 mmHg 76%
    18:00 +14°C° 0.3 mm 6 mps 738 mmHg 78%
    19:00 +14°C° 0.3 mm 7 mps 737 mmHg 79%
    20:00 +15°C° 0.1 mm 7 mps 736 mmHg 76%
    21:00 +15°C° 0.1 mm 8 mps 734 mmHg 73%
    22:00 +15°C° 0.1 mm 8 mps 733 mmHg 70%
    23:00 +16°C° 0.4 mm 8 mps 732 mmHg 70%

    24 September, Monday

    Time Temperature Precipitation Wind Pressure Humidity
    00:00 +16°C° 0.4 mm 8 mps 730 mmHg 70%
    01:00 +17°C° 0.4 mm 8 mps 729 mmHg 70%
    02:00 +16°C° 3.2 mm 9 mps 729 mmHg 73%
    03:00 +16°C° 3.2 mm 9 mps 729 mmHg 75%
    04:00 +14°C° 3.2 mm 10 mps 729 mmHg 77%
    05:00 +13°C° 0.3 mm 10 mps 728 mmHg 78%
    06:00 +12°C° 0.3 mm 9 mps 728 mmHg 78%
    07:00 +12°C° 0.3 mm 9 mps 727 mmHg 79%
    08:00 +11°C° 0.2 mm 11 mps 728 mmHg 78%
    09:00 +10°C° 0.2 mm 12 mps 729 mmHg 76%
    10:00 +9°C° 0.2 mm 14 mps 731 mmHg 75%
    11:00 +9°C° 0.3 mm 13 mps 732 mmHg 74%
    12:00 +9°C° 0.3 mm 13 mps 734 mmHg 73%
    13:00 +9°C° 0.3 mm 13 mps 736 mmHg 72%
    14:00 +9°C° 0 mm 13 mps 737 mmHg 67%
    15:00 +10°C° 0 mm 12 mps 738 mmHg 63%
    16:00 +11°C° 0 mm 11 mps 739 mmHg 58%
    17:00 +11°C° 0 mm 11 mps 740 mmHg 60%
    18:00 +9°C° 0 mm 10 mps 741 mmHg 63%
    19:00 +8°C° 0 mm 9 mps 741 mmHg 65%
    20:00 +9°C° 0 mm 8 mps 742 mmHg 68%
    21:00 +9°C° 0 mm 8 mps 743 mmHg 70%
    22:00 +7°C° 0 mm 8 mps 744 mmHg 72%
    23:00 +7°C° 0 mm 8 mps 744 mmHg 73%
    Show more